Regional Weather Roundup
Issued by NWS Wakefield, VA

Current Version | Previous Version | Graphics & Text | Print | Product List | Glossary On
Versions: 1 2 3 4 5 6 7 8 9 10 11 12 13 14 15 16 17 18 19 20 21 22 23 24 25 26 27
000
ASUS41 KAKQ 100311
RWRAKQ

REGIONAL WEATHER ROUNDUP
NATIONAL WEATHER SERVICE WAKEFIELD VA
1000 PM EST FRI DEC 09 2022

Note: "fair" indicates few or no clouds below 12,000 feet with no
significant weather and/or obstructions to visibility. * = Denotes
station may not report precipitation (e.g., rain,snow,etc.),
thunder or fog.

VAZ042-051-052>054-056-100400-
NORTHERN VIRGINIA

CITY           SKY/WX    TMP DP  RH WIND       PRES   REMARKS
WASH NATIONAL  CLEAR     40  31  70 CALM      30.30S
DULLES         CLEAR     32  25  75 CALM      30.29S
FORT BELVOIR   CLEAR     31  28  89 CALM      30.29R
QUANTICO       CLEAR     35  31  85 W8        30.31S
FREDERICKSBRG* PTCLDY    34  30  85 CALM      30.27F
STAFFORD*      CLEAR     37  32  82 CALM      30.29S
WARRENTON      CLOUDY    31  29  91 CALM      30.28S
CULPEPER*      MOCLDY    35  30  80 CALM      30.29S
MANASSAS*      CLEAR     27  24  89 CALM      30.30S
LEESBURG*      CLEAR     37  30  75 CALM      30.30S
WINCHESTER     CLEAR     30  27  86 CALM      30.25F
FRONT ROYAL*   CLOUDY    32  30  93 CALM      30.26S
LURAY*         CLOUDY    41  32  70 N5        30.25S
$$

VAZ048-049-060>072-079>083-100400-
CENTRAL AND SOUTH CENTRAL VIRGINIA

CITY           SKY/WX    TMP DP  RH WIND       PRES   REMARKS
RICHMOND       MOCLDY    40  31  70 NE6       30.27F
CHESTERFIELD*  CLOUDY    42  31  64 VRB6      30.27F
PETERSBURG*    CLOUDY    44  32  62 CALM      30.27S
HANOVER        MOCLDY    39  33  79 NE3       30.28F
TAPPAHANNOCK*  CLEAR     31  31 100 CALM      30.29S
QUINTON*       MOCLDY    38  31  76 CALM      30.27F
CHARLOTTSVILLE CLOUDY    45  31  58 NE5       30.26S
GORDONSVILLE*  CLOUDY    42  33  69 CALM      30.27S
ORANGE*        CLOUDY    37  32  81 N5        30.28F
LOUISA*        CLOUDY    41  32  68 E6        30.26F
BUMPASS*       CLOUDY    40  32  73 CALM      30.27S
FARMVILLE*     CLOUDY    45  38  78 NE6       30.25F
CREWE*         CLOUDY    44  31  60 CALM      30.26R
FORT PICKETT*  CLOUDY    44  34  66 NE6       30.25R
CHASE CITY*    CLOUDY    45  37  76 MISG      30.25F
CLARKSVILLE*   CLOUDY    45  37  76 CALM      30.24F
SOUTH HILL*    CLOUDY    46  38  72 CALM      30.31R
LAWRENCEVILLE* CLOUDY    47  34  61 CALM      30.27R
EMPORIA*       CLOUDY    44  35  71 NE6       30.27F
$$

VAZ088>098-100400-
SOUTHEAST VIRGINIA

CITY           SKY/WX    TMP DP  RH WIND       PRES   REMARKS
NORFOLK        PTCLDY    45  36  70 NE10      30.25F
VIRGINIA BEACH MOCLDY    44  36  73 NE8       30.24S
NORFOLK NAVAL  PTCLDY    45  37  73 NE7       30.27S
WEST POINT*    CLEAR     32  31  96 CALM      30.29S
SALUDA*        FAIR      40  35  80 N5        30.28S
NEWPORT NEWS   CLEAR     38  33  82 N6        30.27S
LANGLEY AFB    PTCLDY    40  39  97 NW6       30.25
FORT EUSTIS    CLEAR     41  33  74 NE5       30.24F
WILLIAMSBURG*  NOT AVBL
HR EXEC AP*    FAIR      30  30 100 CALM      30.27S
FRANKLIN*      CLOUDY    39  34  82 CALM      30.27S
US460-WAKEFLD  MOCLDY    36  34  92 MISG      30.26F
$$

VAZ020-022-025-037-045-100400-
WEST CENTRAL AND SOUTHWEST VIRGINIA

CITY           SKY/WX    TMP DP  RH WIND       PRES   REMARKS
STAUNTON*      CLOUDY    42  36  80 CALM      30.26R
WAYNESBORO*    CLOUDY    41  32  71 SE3       30.23S
HOT SPRINGS VA SNOW      37  37 100 E6        30.15F VSB<1/4
LYNCHBURG      CLOUDY    45  36  70 NE6       30.24S
DANVILLE       MOCLDY    44  37  76 CALM      30.24S
SOUTH BOSTON*  CLOUDY    45  37  71 CALM      30.25S
MARTINSVILLE   CLOUDY    45  40  81 E5        30.26R
ROANOKE        CLOUDY    44  38  79 SE8       30.24S
BLACKSBURG     CLOUDY    41  41 100 E6        30.22S FOG
DUBLIN*        CLOUDY    42  42 100 E6        30.17F FOG
MARION*        CLOUDY    43  42  97 NE8       30.18S FOG
HILLSVILLE*    HAZE      40  35  83 S5        30.17R VSB 1/2
RICHLANDS*     CLOUDY    48  47  97 CALM      30.12F
WISE*          CLOUDY    50  50 100 SW5       30.13F FOG
ABINGDON*      MOCLDY    49  46  89 E5        30.13S
$$

MDZ021>025-VAZ099-100-100400-
SOUTHERN MARYLAND AND THE DELMARVA PENINSULA

CITY           SKY/WX    TMP DP  RH WIND       PRES   REMARKS
PATUXENT RIVER CLEAR     33  30  88 CALM      30.29R
BAY BRIDGE APT CLEAR     39  32  76 NE5       30.29S
LEONARDTOWN    CLEAR     32  30  93 CALM      30.31R
DOVER          CLEAR     32  25  73 NW6       30.27S
GEORGETOWN     CLEAR     33  27  78 CALM      30.27S
EASTON         CLEAR     32  30  93 CALM      30.32S
CAMBRIDGE      CLEAR     32  32 100 CALM      30.29S
SALISBURY      CLEAR     32  29  88 CALM      30.27S
TANGIER        FAIR      43  32  63 N7        30.28S
OCEAN CITY     CLEAR     31  28  89 NW7       30.26F
WALLOPS ISLAND CLEAR     34  30  85 NW7       30.27S
ACCOMACK*      CLEAR     28  27  96 CALM      30.28R
$$

NCZ012>017-030>032-100400-
NORTH CENTRAL AND EASTERN NORTH CAROLINA

CITY           SKY/WX    TMP DP  RH WIND       PRES   REMARKS
ROANOKE RAPIDS CLOUDY    45  39  81 E3        30.25R
RALEIGH        CLOUDY    47  39  74 E7        30.23S
ELIZABETH CITY CLEAR     44  37  76 N10       30.25R
AHOSKIE*       CLOUDY    44  32  63 NE3       30.26S
EDENTON*       MOCLDY    43  39  86 N5        30.25F
CURRITUCK*     PTCLDY    42  34  73 NW5       30.24S
KILL DEVIL HLS CLOUDY    49  38  66 N5        30.20S
MANTEO         CLOUDY    49  39  67 NE9G20    30.22R
CAPE HATTERAS  CLEAR     50  41  71 NE8G20    30.18S
TARBORO*       CLOUDY    47  34  62 CALM      30.25R
GOLDSBORO      CLEAR     44  37  76 NW5       30.20R
WASHINGTON     NOT AVBL
GREENVILLE     CLOUDY    46  41  81 NE3       30.24S
NEW BERN       CLEAR     44  41  89 NE7       30.23S
WILMINGTON     MOCLDY    46  42  86 NE3       30.21R
$$

VAZ048-100400-
ELSEWHERE

CITY           SKY/WX    TMP DP  RH WIND       PRES   REMARKS
HARRISBURG PA  CLEAR     33  26  75 CALM      30.30F
BALTIMORE      CLEAR     38  26  62 N3        30.28S
ANNAPOLIS      CLEAR     38  34  85 NW3       30.29S
ANDREWS AFB    CLEAR     32  26  78 CALM      30.27R
PHILADELPHIA   CLEAR     36  24  62 N5        30.30R
HENDERSON NC   CLOUDY    41  38  89 CALM      30.23F
GREENSBORO     CLOUDY    47  41  80 E3        30.22R
ROCKY MOUNT    PTCLDY    45  36  70 CALM      30.25R
$$

VAZ100-100400-
MARINE

STATION/POSITION TIME  TEMP    WIND        PRES    WAVE   SWELL
                       AIR SEA DIR/SP/G            HT/PER HT/PER
                 (UTC) (F)     (DEG/KT/KT) (MB)    (FT/S) (FT/S)
CAPE MAY NJ      0224   40      10/  3/  5 1025.1
LEWES DE         0224   45 49   30/ 14/ 16 1025.3
15NM E FENWICK I 0250   46      10/ 14/ 19 1024.7F   6/15   5/15
OCEAN-CITY-INLET 0224   43 51   20/  9/ 10 1025.1
44089 WALLOPS IS 0256      54                N/A     5/14   3/14
WACHAPREAGUE VA  0224   37 51  330/  1/  2 1024.5
THOMAS POINT MD  0300   42     330/  7/  7 1026.5R
GOOSES REEF MD   0248   42 49   40/ 14     1026.3F
COVE POINT MD    0224   44     360/  7/  9 1025.8
SOLOMONS ISLAND  0224   39 51  300/  3/  4 1024.2
BISHOPS HEAD MD  0224   38 47  340/  4/  4 1025.3
PINEY POINT MD   0224           40/  3/  5   N/A
POTOMAC MD       0248   42 51   30/  8/ 10   N/A
CAMBRIDGE MD     0224   43 47   20/  4/  5 1025.4
LEWISETTA VA     0224   44 50   30/  4/  5 1025.5
RAPPAHANNOCK LGT 0224           40/ 10/ 12 1025.5
STINGRAY PT      0248   43 51   30/ 12/ 17   N/A     1/ 3
YORK RVR RNG VA  0224   45      10/ 11/ 12 1024.9
YORKTOWN VA      0224   43 53   10/  9/ 12 1024.8
JAMESTOWN VA     0248   40      20/  6/ 10   N/A
DOMINION TERM VA 0224   44      70/  2/  3 1024.9
KIPTOPEKE VA     0224      57   30/  5/  7   N/A
CHES BAY BRIDGE  0224   46      50/  8/ 12 1023.8
CAPE HENRY VA    0224   47      20/ 13/ 15 1024.7
WILLOUBY STN VA  0224   46      10/  7/  9 1025.0
S CRANEY ISL VA  0224   47      50/  7/  9 1024.4
CAPE HENRY BUOY  0256      56                N/A     5/14   3/14
1ST LANDING BUOY 0248   45 53   30/ 12/ 16 1002.1F   2/14
DUCK PIER NC     0224   50 55   30/ 15/ 17 1022.9
44100 DUCK FRF   0256      59                N/A     8/14   7/14
44056 DUCK FRF   0256      57                N/A     6/14   5/14
OREGON INLET NC  0218   50 57   30/ 13/ 17 1022.4
HATTERAS NC      0224   51 58   40/ 13/ 18 1022.2
DIAMOND SHLS NC  0250      74   20/ 19/ 27 1021.1F
CAPE LOOKOUT NC  0200   50      10/ 13/ 16 1022.9R
$$



USA.gov is the U.S. government's official web portal to all federal, state and local government web resources and services.